TimeMST,TemperatureF,Dew PointF,Humidity,Sea Level PressureIn,VisibilityMPH,Wind Direction,Wind SpeedMPH,Gust SpeedMPH,PrecipitationIn,Events,Conditions,WindDirDegrees,DateUTC
12:54 AM,53.1,28.0,38,29.91,10.0,East,6.9,-,N/A,,Clear,90,2012-10-28 07:54:00
1:54 AM,52.0,28.9,41,29.90,10.0,East,3.5,-,N/A,,Clear,90,2012-10-28 08:54:00
2:54 AM,48.9,28.9,46,29.90,10.0,Calm,Calm,-,N/A,,Clear,0,2012-10-28 09:54:00
3:54 AM,48.9,28.9,46,29.91,10.0,Calm,Calm,-,N/A,,Clear,0,2012-10-28 10:54:00
4:54 AM,48.0,28.0,46,29.92,10.0,SSE,3.5,-,N/A,,Clear,150,2012-10-28 11:54:00
5:54 AM,46.9,28.0,48,29.94,10.0,SSE,3.5,-,N/A,,Clear,160,2012-10-28 12:54:00
6:54 AM,46.9,28.9,50,29.96,10.0,Calm,Calm,-,N/A,,Clear,0,2012-10-28 13:54:00
7:54 AM,55.0,30.0,38,29.97,10.0,South,3.5,-,N/A,,Clear,180,2012-10-28 14:54:00
8:54 AM,63.0,30.9,30,29.97,10.0,South,4.6,-,N/A,,Clear,180,2012-10-28 15:54:00
9:54 AM,73.4,30.2,20,30.11,10.0,South,3.5,-,N/A,,Clear,180,2012-10-28 16:54:00
10:54 AM,78.1,30.0,17,29.95,10.0,Variable,3.5,-,N/A,,Clear,0,2012-10-28 17:54:00
11:54 AM,81.0,28.9,15,29.94,10.0,Variable,3.5,-,N/A,,Clear,0,2012-10-28 18:54:00
12:54 PM,84.0,27.0,13,29.90,10.0,Variable,4.6,-,N/A,,Clear,0,2012-10-28 19:54:00
1:54 PM,82.9,25.0,12,29.88,10.0,Calm,Calm,-,N/A,,Clear,0,2012-10-28 20:54:00
2:54 PM,84.0,23.0,11,29.88,10.0,Variable,5.8,-,N/A,,Clear,0,2012-10-28 21:54:00
3:54 PM,84.9,25.0,11,29.88,10.0,NNW,9.2,-,N/A,,Clear,330,2012-10-28 22:54:00
4:54 PM,82.0,27.0,13,29.89,10.0,WNW,5.8,-,N/A,,Clear,300,2012-10-28 23:54:00
5:54 PM,75.9,28.0,17,29.92,10.0,West,5.8,-,N/A,,Clear,270,2012-10-29 00:54:00
6:54 PM,69.1,30.0,23,29.96,10.0,Calm,Calm,-,N/A,,Clear,0,2012-10-29 01:54:00
7:54 PM,63.0,30.0,29,29.98,10.0,Calm,Calm,-,N/A,,Clear,0,2012-10-29 02:54:00
8:54 PM,61.0,30.0,31,29.99,10.0,East,6.9,-,N/A,,Clear,80,2012-10-29 03:54:00
9:54 PM,59.0,28.9,32,29.99,10.0,East,5.8,-,N/A,,Clear,80,2012-10-29 04:54:00
10:54 PM,55.9,28.9,36,29.99,10.0,Calm,Calm,-,N/A,,Clear,0,2012-10-29 05:54:00
11:54 PM,55.9,28.9,36,30.00,10.0,East,3.5,-,N/A,,Clear,90,2012-10-29 06:54:00